Regional Weather Roundup
Issued by NWS

Home | Current Version | Previous Version | Text Only | Print | Product List | Glossary On
Versions: 1 2 3 4 5 6 7 8 9 10 11 12 13 14 15 16 17 18 19 20 21 22 23 24 25 26 27 28 29 30 31 32 33 34 35 36 37 38 39 40 41 42 43 44 45 46 47 48 49 50
000
ASUS44 KMEG 231810
RWRTN
TENNESSEE HOURLY STATE WEATHER ROUNDUP
NATIONAL WEATHER SERVICE MEMPHIS TN
1200 PM CST THU FEB 23 2017

TNZ002-004-019-021-049-052-054-088>092-231900-
WEST TENNESSEE

CITY           SKY/WX    TMP DP  RH WIND       PRES   REMARKS
MEMPHIS INTL   MOSUNNY   75  56  51 S20       29.77F
NWS MEMPHIS      N/A     72 N/A N/A MISG        N/A
JACKSON        PTSUNNY   72  57  59 S13G20    29.78F
UNION CITY     MOSUNNY   70  55  60 S14       29.75F
PARIS          PTSUNNY   66  55  68 S13       29.78F
HUNTINGDON     CLOUDY    68  59  73 S10       29.78F
$$

TNZ008-025-027-028-033-062-065-066-231900-
NORTH MIDDLE TENNESSEE

CITY           SKY/WX    TMP DP  RH WIND       PRES   REMARKS
NASHVILLE      CLOUDY    70  56  61 SW9       29.83F
PORTLAND       PTSUNNY   70  57  64 SW14G21   29.82F
CLARKSVILLE    PTSUNNY   67  56  67 SW13      29.79F
SMYRNA         PTSUNNY   71  58  63 S9        29.83F
COOKEVILLE     CLOUDY    72  55  56 VRB7      29.83F
GALLATIN       PTSUNNY   72  57  60 S9G15     29.85F
CROSSVILLE     PTSUNNY   66  53  63 S8        29.88F
$$

TNZ061-075-076-078-094-096-097-231900-
SOUTH MIDDLE TENNESSEE

CITY           SKY/WX    TMP DP  RH WIND       PRES   REMARKS
FAYETTEVILLE   CLOUDY    68  57  68 S10       29.85F
TULLAHOMA      CLOUDY    66  54  63 S10       29.87F
WINCHESTER     CLOUDY    66  55  68 S6        29.86F
MCMINNVILLE    PTSUNNY   72  55  56 S8        29.85F
COLUMBIA       CLOUDY    70  68  94 S6        29.81F
SHELBYVILLE    CLOUDY    72  57  60 S8        29.85F
$$

TNZ017-018-042-046-047-231900-
NORTHEAST TENNESSEE

CITY           SKY/WX    TMP DP  RH WIND       PRES   REMARKS
TRI CITIES     MOSUNNY   68  53  58 W5        29.89F
ELIZABETHTON   MOSUNNY   70  50  49 CALM      29.87F
$$

TNZ012-013-036-069-073-074-231900-
CENTRAL EAST TENNESSEE

CITY           SKY/WX    TMP DP  RH WIND       PRES   REMARKS
KNOXVILLE      MOSUNNY   64  55  72 NW6       29.87F
OAK RIDGE      MOSUNNY   62  55  77 CALM      29.89F
GATLINBURG     SUNNY     66  54  63 NE5       29.86F
MORRISTOWN     SUNNY     66  54  63 VRB3      29.87F
JACKSBORO      MOSUNNY   61  55  82 CALM      29.91F
$$

TNZ083-085-099-231900-
SOUTHEAST TENNESSEE

CITY           SKY/WX    TMP DP  RH WIND       PRES   REMARKS
CHATTANOOGA    PTSUNNY   70  55  59 SW6       29.86F
$$

SKY/WX REPORTED AS FAIR MEANS FEW OR NO CLOUDS BELOW
12 THOUSAND FEET.




USA.gov is the U.S. government's official web portal to all federal, state and local government web resources and services.